Weather History for Batesville, AR

Change the Weather History Date:

Saturday, July 13, 2013

  Actual Average Record
Temperature  
Mean Temperature 74 °F -  
Max Temperature 89 °F 94 °F 112 °F (1954)
Min Temperature 60 °F 69 °F 56 °F (1964)
Cooling Degree Days 10    
Growing Degree Days 24 (Base 50)    
Moisture  
Dew Point 58 °F    
Average Humidity 61    
Maximum Humidity 82    
Minimum Humidity 33    
Precipitation  
Precipitation 0.00 in - - ()
Sea Level Pressure  
Sea Level Pressure 30.04 in    
Wind  
Wind Speed 3 mph (NNE)    
Max Wind Speed 15 mph    
Max Gust Speed 18 mph    
Visibility 10 miles    
Events      
Averages and records for this station are not official NWS values.
T = Trace of Precipitation, MM = Missing Value Source: NWS Daily Summary

Daily Weather History Graph

Daily Weather History Graph

Search for Another Location

Airport:

Trip Planner

Search our weather history database for the weather conditions in past years. The results will help you decide how hot, cold, wet, or windy it might be!

Date:

Astronomy

Jul. 13, 2013 Rise Set
Actual Time 6:01 AM CDT 8:23 PM CDT
Civil Twilight 5:31 AM CDT 8:52 PM CDT
Nautical Twilight 4:55 AM CDT 9:29 PM CDT
Astronomical Twilight 4:15 AM CDT 10:08 PM CDT
Moon 11:05 AM CDT (7/13) 11:17 PM CDT (7/13)
Length of Visible Light 15h 21m
Length of Day
14h 22m
Waxing Crescent, 26% of the Moon is Illuminated
Jul 13
Waxing Crescent
Jul 15
First Quarter
Jul 22
Full
Jul 29
Last Quarter
Aug 6
New

Hourly Weather History & Observations

Time (CDT) Temp. Heat Index Dew Point Humidity Pressure Visibility Wind Dir Wind Speed Gust Speed Precip Events Conditions
12:15 AM 69.8 °F - 55.4 °F 60% 30.04 in 10.0 mi Calm Calm - N/A   Clear
12:35 AM 66.2 °F - 55.4 °F 68% 30.05 in 10.0 mi Calm Calm - N/A   Clear
12:55 AM 66.2 °F - 55.4 °F 68% 30.05 in 10.0 mi Calm Calm - N/A   Clear
1:16 AM 64.4 °F - 55.4 °F 73% 30.05 in 10.0 mi Calm Calm - N/A   Clear
1:35 AM 64.4 °F - 55.4 °F 73% 30.05 in 10.0 mi WNW 3.5 mph - N/A   Clear
1:55 AM 64.4 °F - 55.4 °F 73% 30.05 in 10.0 mi Calm Calm - N/A   Clear
2:15 AM 62.6 °F - 55.4 °F 77% 30.05 in 10.0 mi Calm Calm - N/A   Clear
2:55 AM 62.6 °F - 55.4 °F 77% 30.05 in 10.0 mi Calm Calm - N/A   Clear
3:15 AM 62.6 °F - 55.4 °F 77% 30.05 in 10.0 mi Calm Calm - N/A   Clear
3:35 AM 62.6 °F - 55.4 °F 77% 30.05 in 10.0 mi WSW 3.5 mph - N/A   Clear
3:55 AM 62.6 °F - 55.4 °F 77% 30.05 in 10.0 mi West 3.5 mph - N/A   Clear
4:35 AM 60.8 °F - 55.4 °F 82% 30.04 in 10.0 mi NW 5.8 mph - N/A   Clear
4:56 AM 60.8 °F - 55.4 °F 82% 30.05 in 10.0 mi Calm Calm - N/A   Clear
5:15 AM 60.8 °F - 55.4 °F 82% 30.04 in 10.0 mi WNW 5.8 mph - N/A   Clear
5:35 AM 60.8 °F - 55.4 °F 82% 30.05 in 10.0 mi WNW 4.6 mph - N/A   Clear
5:55 AM 60.8 °F - 55.4 °F 82% 30.05 in 10.0 mi WNW 5.8 mph - N/A   Clear
6:15 AM 60.8 °F - 55.4 °F 82% 30.06 in 10.0 mi WNW 4.6 mph - N/A   Clear
6:35 AM 60.8 °F - 55.4 °F 82% 30.06 in 10.0 mi WNW 5.8 mph - N/A   Clear
6:56 AM 60.8 °F - 55.4 °F 82% 30.06 in 10.0 mi WNW 4.6 mph - N/A   Clear
7:15 AM 62.6 °F - 57.2 °F 82% 30.06 in 10.0 mi WNW 3.5 mph - N/A   Clear
7:35 AM 64.4 °F - 57.2 °F 77% 30.06 in 10.0 mi Calm Calm - N/A   Clear
7:55 AM 66.2 °F - 57.2 °F 73% 30.07 in 10.0 mi Calm Calm - N/A   Clear
8:15 AM 68.0 °F - 59.0 °F 73% 30.08 in 10.0 mi WNW 4.6 mph - N/A   Clear
8:35 AM 69.8 °F - 59.0 °F 68% 30.08 in 10.0 mi Calm Calm - N/A   Clear
8:55 AM 71.6 °F - 60.8 °F 69% 30.08 in 10.0 mi WNW 3.5 mph - N/A   Clear
9:16 AM 73.4 °F - 60.8 °F 65% 30.08 in 10.0 mi West 3.5 mph - N/A   Clear
9:35 AM 75.2 °F - 60.8 °F 61% 30.08 in 10.0 mi Calm Calm - N/A   Clear
9:55 AM 77.0 °F - 60.8 °F 57% 30.07 in 10.0 mi WNW 3.5 mph - N/A   Clear
10:15 AM 78.8 °F - 59.0 °F 51% 30.08 in 10.0 mi Calm Calm - N/A   Clear
10:35 AM 80.6 °F 81.1 °F 59.0 °F 48% 30.08 in 10.0 mi NE 5.8 mph - N/A   Clear
10:55 AM 82.4 °F 82.0 °F 57.2 °F 42% 30.08 in 10.0 mi East 6.9 mph - N/A   Clear
11:15 AM 82.4 °F 82.9 °F 60.8 °F 48% 30.07 in 10.0 mi Calm Calm - N/A   Clear
11:16 AM 82.4 °F 82.9 °F 60.8 °F 48% 30.07 in 10.0 mi Calm Calm - N/A   Clear
11:35 AM 82.4 °F 82.9 °F 60.8 °F 48% 30.07 in 10.0 mi ENE 6.9 mph - N/A   Partly Cloudy
12:15 PM 84.2 °F 83.8 °F 59.0 °F 42% 30.07 in 10.0 mi NNW 3.5 mph - N/A   Partly Cloudy
12:55 PM 84.2 °F 83.8 °F 59.0 °F 42% 30.05 in 10.0 mi NE 5.8 mph - N/A   Clear
1:15 PM 86.0 °F 84.9 °F 57.2 °F 37% 30.05 in 10.0 mi NNE 4.6 mph - N/A   Clear
1:35 PM 87.8 °F 86.5 °F 57.2 °F 35% 30.04 in 10.0 mi ESE 3.5 mph - N/A   Clear
2:15 PM 87.8 °F 86.5 °F 57.2 °F 35% 30.04 in 10.0 mi East 12.7 mph 16.1 mph N/A   Clear
2:35 PM 87.8 °F 87.1 °F 59.0 °F 38% 30.03 in 10.0 mi ENE 10.4 mph 17.3 mph N/A   Clear
2:55 PM 87.8 °F 87.1 °F 59.0 °F 38% 30.02 in 10.0 mi East 5.8 mph - N/A   Clear
3:35 PM 87.8 °F 87.1 °F 59.0 °F 38% 30.01 in 10.0 mi East 11.5 mph 18.4 mph N/A   Clear
3:55 PM 89.6 °F 88.1 °F 57.2 °F 33% 30.02 in 10.0 mi East 15.0 mph 18.4 mph N/A   Clear
4:15 PM 87.8 °F 86.5 °F 57.2 °F 35% 30.01 in 10.0 mi East 9.2 mph - N/A   Clear
4:35 PM 87.8 °F 86.5 °F 57.2 °F 35% 30.01 in 10.0 mi ENE 6.9 mph - N/A   Clear
4:55 PM 86.0 °F 84.9 °F 57.2 °F 37% 30.01 in 10.0 mi East 10.4 mph - N/A   Clear
5:35 PM 84.2 °F 83.5 °F 57.2 °F 40% 30.01 in 10.0 mi East 10.4 mph - N/A   Clear
5:55 PM 84.2 °F 83.5 °F 57.2 °F 40% 30.01 in 10.0 mi East 9.2 mph - N/A   Clear
6:15 PM 82.4 °F 82.0 °F 57.2 °F 42% 30.00 in 10.0 mi East 5.8 mph - N/A   Clear
6:55 PM 82.4 °F 82.0 °F 57.2 °F 42% 30.00 in 10.0 mi East 5.8 mph - N/A   Clear
7:15 PM 80.6 °F 81.1 °F 59.0 °F 48% 30.00 in 10.0 mi ENE 5.8 mph - N/A   Clear
7:35 PM 80.6 °F 81.1 °F 59.0 °F 48% 30.00 in 10.0 mi East 4.6 mph - N/A   Clear
7:55 PM 78.8 °F - 60.8 °F 54% 30.00 in 10.0 mi East 5.8 mph - N/A   Clear
7:56 PM 78.8 °F - 60.8 °F 54% 30.00 in 10.0 mi East 5.8 mph - N/A   Clear
8:35 PM 73.4 °F - 60.8 °F 65% 30.00 in 10.0 mi Calm Calm - N/A   Clear
8:55 PM 73.4 °F - 60.8 °F 65% 30.00 in 10.0 mi Calm Calm - N/A   Clear
9:15 PM 73.4 °F - 60.8 °F 65% 30.01 in 10.0 mi Calm Calm - N/A   Clear
9:35 PM 71.6 °F - 60.8 °F 69% 30.01 in 10.0 mi Calm Calm - N/A   Clear
9:55 PM 71.6 °F - 60.8 °F 69% 30.01 in 10.0 mi Calm Calm - N/A   Clear
10:15 PM 69.8 °F - 60.8 °F 73% 30.02 in 10.0 mi Calm Calm - N/A   Clear
10:35 PM 69.8 °F - 60.8 °F 73% 30.03 in 10.0 mi Calm Calm - N/A   Clear
10:55 PM 69.8 °F - 59.0 °F 68% 30.02 in 10.0 mi Calm Calm - N/A   Clear
11:16 PM 69.8 °F - 60.8 °F 73% 30.02 in 10.0 mi Calm Calm - N/A   Clear
11:35 PM 66.2 °F - 59.0 °F 78% 30.03 in 10.0 mi Calm Calm - N/A   Clear
11:55 PM 66.2 °F - 59.0 °F 78% 30.02 in 10.0 mi West 3.5 mph - N/A   Clear